Location: Hall+in+Tirol
(47.2830°N, 11.5170°E)
Time: 09:06:18
(UTC+01:00)

Amateur Radio Satellites - All Passes

Search period start: 24 November 2014 08:36
Search period end: 25 November 2014 08:36
Location: Hall+in+Tirol, 47.2830°N, 11.5170°E

Satellite Date Start Highest point End Downlink Frequencies (MHz)
Time Altitude Azimuth
QB50P2 24 Nov 08:37:01 08:37:30 10° 56° (ENE) 08:37:59 145.880/145.840
TIGRISAT 24 Nov 08:43:17 08:45:52 16° 61° (ENE) 08:48:26 435.000
DUCHIFAT 1 24 Nov 08:43:29 08:45:01 12° 58° (ENE) 08:46:33 145.980
AAUSAT CUBESAT 2 24 Nov 08:45:26 08:48:48 23° 93° (E) 08:52:09 437.432
AIST 1 24 Nov 08:45:31 08:46:22 11° 279° (W) 08:47:12
GONETS M04 24 Nov 08:46:50 08:55:38 82° 96° (E) 09:04:31
CANX-2 24 Nov 08:48:05 08:52:07 38° 97° (E) 08:56:08 2200.000
UNISAT 6 24 Nov 08:54:55 08:58:05 21° 63° (ENE) 09:01:15 437.425
COMPASS 1 24 Nov 08:58:44 09:02:37 34° 96° (E) 09:06:30 437.405
NANOSAT C BR1 24 Nov 09:01:03 09:03:50 17° 61° (ENE) 09:06:38 145.865
DELFI C3 24 Nov 09:03:04 09:05:32 15° 90° (E) 09:08:00 145.870
QB50P1 24 Nov 09:10:08 09:13:20 21° 63° (ENE) 09:16:31 145.935-145.965
DOVE 4 24 Nov 09:11:22 09:15:06 31° 96° (E) 09:18:52 437.250
ANTELSAT 24 Nov 09:22:28 09:26:23 37° 68° (ENE) 09:30:19 437.575/2403.000
CUTE 1.7 & AOD 2 24 Nov 09:22:55 09:27:13 82° 103° (ESE) 09:31:31 437.475
HO-68 24 Nov 09:30:05 09:37:20 80° 106° (ESE) 09:44:30 435.675
BUGSAT 1 24 Nov 09:32:18 09:35:58 29° 66° (ENE) 09:39:37 437.445
POPSAT HIP 1 24 Nov 09:33:48 09:37:40 34° 68° (ENE) 09:41:32 437.405
FUNcube-1 24 Nov 09:38:54 09:41:57 19° 92° (E) 09:45:01 145.935
UKube-1 24 Nov 09:39:10 09:43:11 36° 98° (E) 09:47:10 .
GOMX 1 24 Nov 09:42:35 09:46:46 89° 106° (ESE) 09:50:58 467.674
SO-50 24 Nov 09:43:42 09:45:02 11° 13° (NNE) 09:46:22 436.795
Oscar 11 24 Nov 09:52:02 09:56:20 57° 101° (E) 10:00:37 145.826/435.025
CUBEBUG 2 24 Nov 09:53:34 09:57:28 35° 97° (E) 10:01:25 437.445
UWE-3 24 Nov 09:58:37 10:02:30 35° 97° (E) 10:06:26 435.000/436.395/437.385
SEEDS 24 Nov 09:59:05 10:03:12 48° 289° (WNW) 10:07:18 437.485
BRITE-PL 24 Nov 09:59:52 10:03:50 44° 289° (WNW) 10:07:47 437.365/2234.400
CINEMA 3 24 Nov 10:03:58 10:08:09 71° 102° (ESE) 10:12:25 145.822/145.860
POLYITAN 1 24 Nov 10:05:29 10:09:44 73° 74° (ENE) 10:14:00 437.675
QB50P2 24 Nov 10:08:25 10:12:41 78° 75° (ENE) 10:16:58 145.880/145.840
DX 1 24 Nov 10:12:13 10:16:36 80° 104° (ESE) 10:20:56 434.975-435.025
DUCHIFAT 1 24 Nov 10:15:59 10:20:15 89° 256° (WSW) 10:24:32 145.980
TIGRISAT 24 Nov 10:17:58 10:22:11 62° 259° (WSW) 10:26:25 435.000
AAUSAT CUBESAT 2 24 Nov 10:20:41 10:24:37 38° 291° (WNW) 10:28:32 437.432
ESTCUBE 1 24 Nov 10:23:42 10:26:23 15° 89° (E) 10:29:04 437.505/2401.250
CANX-2 24 Nov 10:24:27 10:27:52 24° 295° (WNW) 10:31:18 2200.000
UNISAT 6 24 Nov 10:30:31 10:34:37 45° 261° (W) 10:38:44 437.425
VELOX 1 24 Nov 10:32:07 10:36:21 42° 99° (E) 10:40:32 145.980
COMPASS 1 24 Nov 10:34:43 10:38:14 26° 294° (WNW) 10:41:46 437.405
NANOSAT C BR1 24 Nov 10:35:09 10:39:20 56° 259° (W) 10:43:33 145.865
DELFI C3 24 Nov 10:37:08 10:41:12 55° 288° (WNW) 10:45:14 145.870
ZACube-1 24 Nov 10:38:38 10:42:51 80° 103° (ESE) 10:47:08 437.345
HUMSAT D 24 Nov 10:38:52 10:42:55 49° 100° (E) 10:46:59 437.325/437.525
50 SAT 24 Nov 10:42:50 10:46:44 45° 99° (E) 10:50:39 437.505
QB50P1 24 Nov 10:44:53 10:48:58 44° 261° (W) 10:53:04 145.935-145.965
GONETS M04 24 Nov 10:46:29 10:53:35 26° 300° (WNW) 11:00:46
DOVE 4 24 Nov 10:49:22 10:52:50 26° 294° (WNW) 10:56:19 437.250
AISAT 24 Nov 10:56:51 11:01:18 77° 103° (ESE) 11:05:43 437.250
ANTELSAT 24 Nov 10:59:52 11:03:19 24° 266° (W) 11:06:47 437.575/2403.000
CUTE 1.7 & AOD 2 24 Nov 11:00:40 11:02:33 13° 301° (WNW) 11:04:26 437.475
BUGSAT 1 24 Nov 11:07:37 11:11:25 31° 264° (W) 11:15:13 437.445
POPSAT HIP 1 24 Nov 11:10:05 11:13:38 25° 266° (W) 11:17:13 437.405
YUBILEINY 24 Nov 11:10:26 11:12:08 11° 43° (NE) 11:13:49 435.215
TISAT 1 24 Nov 11:14:11 11:15:52 12° 88° (E) 11:17:33 437.305
FUNcube-1 24 Nov 11:14:32 11:18:32 44° 289° (WNW) 11:22:35 145.935
UKube-1 24 Nov 11:15:36 11:19:14 26° 296° (WNW) 11:22:49 .
SPROUT 24 Nov 11:17:06 11:18:41 12° 88° (E) 11:20:15 437.525
CUBEBUG 1 24 Nov 11:18:12 11:22:28 48° 99° (E) 11:26:40 437.445
HO-68 24 Nov 11:18:42 11:24:19 26° 307° (NW) 11:29:56 435.675
SO-50 24 Nov 11:23:10 11:27:15 26° 36° (NE) 11:31:22 436.795
GOMX 1 24 Nov 11:23:18 11:24:16 11° 302° (WNW) 11:25:14 467.674
Oscar 11 24 Nov 11:29:13 11:32:06 18° 298° (WNW) 11:34:59 145.826/435.025
CUBEBUG 2 24 Nov 11:30:39 11:34:03 25° 294° (WNW) 11:37:31 437.445
UWE-3 24 Nov 11:35:30 11:38:56 25° 294° (WNW) 11:42:25 435.000/436.395/437.385
Oscar 19 24 Nov 11:39:25 11:43:25 24° 61° (ENE) 11:47:27 437.125/150
CINEMA 3 24 Nov 11:42:48 11:44:53 14° 300° (WNW) 11:47:00 145.822/145.860
POLYITAN 1 24 Nov 11:44:28 11:46:12 12° 272° (W) 11:47:56 437.675
QB50P2 24 Nov 11:47:47 11:49:10 11° 272° (W) 11:50:33 145.880/145.840
DX 1 24 Nov 11:50:07 11:52:15 14° 302° (WNW) 11:54:23 434.975-435.025
ESTCUBE 1 24 Nov 11:59:12 12:03:44 65° 287° (WNW) 12:08:12 437.505/2401.250
AO-7 24 Nov 12:07:57 12:08:40 10° 28° (NNE) 12:09:24 29.400- 29.500
VELOX 1 24 Nov 12:09:13 12:12:43 23° 297° (WNW) 12:16:11 145.980
HUMSAT D 24 Nov 12:15:34 12:18:25 18° 297° (WNW) 12:21:18 437.325/437.525
ZACube-1 24 Nov 12:16:51 12:18:41 13° 301° (WNW) 12:20:31 437.345
50 SAT 24 Nov 12:18:55 12:21:47 19° 297° (WNW) 12:24:39 437.505
ITAMSAT 1 24 Nov 12:27:19 12:31:37 27° 62° (ENE) 12:35:55 435.822/435.867
AISAT 24 Nov 12:35:02 12:37:22 14° 302° (WNW) 12:39:42 437.250
ITUPSAT 1 24 Nov 12:36:04 12:38:49 15° 89° (E) 12:41:33 437.325
Gurwin Techsat 1B 24 Nov 12:47:08 12:51:18 24° 61° (ENE) 12:55:28 435.225
SWISSCUBE 24 Nov 12:47:13 12:50:51 21° 92° (E) 12:54:27 437.505
TISAT 1 24 Nov 12:48:01 12:52:14 72° 286° (WNW) 12:56:25 437.305
SPROUT 24 Nov 12:51:02 12:55:20 76° 286° (WNW) 12:59:35 437.525
CUBEBUG 1 24 Nov 12:55:19 12:58:32 20° 298° (WNW) 13:01:44 437.445
AUBIESAT-1 24 Nov 12:59:55 13:04:11 29° 99° (E) 13:08:23 437.475
HORYU 2 24 Nov 13:02:18 13:04:15 13° 57° (ENE) 13:06:13 437.375
SO-50 24 Nov 13:03:24 13:08:14 68° 236° (SW) 13:13:06 436.795
M-CUBED/EXP-1 PRIME 24 Nov 13:03:29 13:07:57 33° 101° (E) 13:12:22 437.505
YUBILEINY 24 Nov 13:03:35 13:11:53 45° 70° (ENE) 13:20:05 435.215
CUSAT 1 24 Nov 13:11:30 13:14:05 42° 98° (E) 13:16:35 437.405
Oscar 19 24 Nov 13:17:27 13:22:26 54° 260° (W) 13:27:28 437.125/150
BEESAT 24 Nov 13:18:13 13:22:41 37° 97° (E) 13:27:06 436.000
DANDE 24 Nov 13:27:53 13:30:40 61° 100° (E) 13:33:15 436.750
STARS 24 Nov 13:45:56 13:45:57 10° 87° (E) 13:45:59 437.465
AO-7 24 Nov 13:51:48 13:58:52 33° 53° (NE) 14:05:58 29.400- 29.500
JAS-2 24 Nov 13:57:03 13:59:26 12° 41° (NE) 14:01:49 435.910
ITAMSAT 1 24 Nov 14:05:48 14:10:51 49° 260° (W) 14:15:55 435.822/435.867
ITUPSAT 1 24 Nov 14:12:26 14:17:15 72° 287° (WNW) 14:22:02 437.325
KKS-1 24 Nov 14:18:48 14:22:49 32° 96° (E) 14:26:48 437.445
SWISSCUBE 24 Nov 14:24:21 14:29:01 52° 290° (WNW) 14:33:39 437.505
O/OREOS (USA 219) 24 Nov 14:25:17 14:27:47 15° 45° (NE) 14:30:17 437.305
Gurwin Techsat 1B 24 Nov 14:25:41 14:30:54 57° 259° (W) 14:36:09 435.225
AUBIESAT-1 24 Nov 14:34:37 14:39:16 43° 297° (WNW) 14:43:52 437.475
HORYU 2 24 Nov 14:35:50 14:40:16 88° 256° (WSW) 14:44:45 437.375
M-CUBED/EXP-1 PRIME 24 Nov 14:38:27 14:42:59 38° 298° (WNW) 14:47:30 437.505
BEESAT 24 Nov 14:56:16 15:00:26 30° 295° (WNW) 15:04:34 436.000
RS-15 24 Nov 14:57:03 15:04:39 22° 100° (E) 15:12:13 29.354- 29.394
YUBILEINY 24 Nov 15:00:34 15:08:45 47° 272° (W) 15:16:53 435.215
VERMONT LUNAR 24 Nov 15:15:01 15:16:23 12° 154° (SSE) 15:17:46 437.305
STARS 24 Nov 15:18:41 15:23:07 90° 105° (ESE) 15:27:30 437.465
JAS-2 24 Nov 15:35:23 15:42:28 42° 63° (ENE) 15:49:42 435.910
CUTE-I 24 Nov 15:36:28 15:37:18 10° 50° (NE) 15:38:07 437.470
AO-7 24 Nov 15:42:48 15:51:04 72° 254° (WSW) 15:59:25 29.400- 29.500
ITUPSAT 1 24 Nov 15:52:45 15:54:18 11° 306° (NW) 15:55:49 437.325
KKS-1 24 Nov 15:55:34 15:59:24 29° 294° (WNW) 16:03:14 437.445
O/OREOS (USA 219) 24 Nov 16:03:23 16:07:53 90° 66° (ENE) 16:12:22 437.305
MaSat-1 24 Nov 16:07:18 16:10:15 71° 300° (WNW) 16:12:56 437.345
Cubesat XI-IV 24 Nov 16:30:02 16:34:30 28° 62° (ENE) 16:38:59 437.490
PHONESAT 2.4 24 Nov 16:32:22 16:35:11 20° 164° (SSE) 16:38:00 2401.200-2431.200
MOZHAYETS 4 24 Nov 16:45:28 16:49:45 35° 96° (E) 16:54:00
VERMONT LUNAR 24 Nov 16:51:08 16:54:09 25° 170° (S) 16:57:11 437.305
STARS 24 Nov 16:57:09 16:58:56 12° 303° (WNW) 17:00:43 437.465
GONETS M04 24 Nov 16:59:08 17:02:19 12° 45° (NE) 17:05:28
RS-15 24 Nov 17:04:15 17:15:11 81° 123° (ESE) 17:26:11 29.354- 29.394
PRISM 24 Nov 17:06:39 17:07:10 10° 87° (E) 17:07:41 437.425
CUTE-I 24 Nov 17:11:02 17:16:16 56° 70° (ENE) 17:21:31 437.470
JAS-2 24 Nov 17:19:53 17:27:17 52° 263° (W) 17:34:58 435.910
AO-7 24 Nov 17:40:46 17:45:21 16° 275° (W) 17:49:58 29.400- 29.500
O/OREOS (USA 219) 24 Nov 17:45:39 17:46:32 11° 263° (W) 17:47:25 437.305
STRAND 1 24 Nov 18:06:58 18:10:37 19° 91° (E) 18:14:14 437.568
Cubesat XI-IV 24 Nov 18:09:09 18:14:21 49° 260° (W) 18:19:34 437.490
PHONESAT 2.4 24 Nov 18:10:10 18:13:25 29° 181° (S) 18:16:40 2401.200-2431.200
HO-68 24 Nov 18:16:53 18:21:52 21° 50° (NE) 18:26:52 435.675
CUBESAT XI-V 24 Nov 18:21:37 18:25:35 27° 94° (E) 18:29:31 437.345
MOZHAYETS 4 24 Nov 18:22:51 18:26:54 30° 294° (WNW) 18:30:56
VERMONT LUNAR 24 Nov 18:29:02 18:32:07 26° 188° (S) 18:35:12 437.305
PRISM 24 Nov 18:39:03 18:43:20 86° 285° (WNW) 18:47:34 437.425
CUTE 1.7 & AOD 2 24 Nov 18:46:47 18:48:00 11° 57° (ENE) 18:49:12 437.475
CUTE-I 24 Nov 18:52:31 18:56:41 23° 268° (W) 19:00:53 437.470
GONETS M04 24 Nov 18:53:21 19:01:54 49° 72° (ENE) 19:10:20
PCSat 24 Nov 19:12:33 19:16:22 20° 106° (ESE) 19:20:11 145.827
JAS-2 24 Nov 19:13:29 19:14:06 10° 283° (WNW) 19:14:44 435.910
GOMX 1 24 Nov 19:17:35 19:20:44 18° 63° (ENE) 19:23:46 467.674
RS-15 24 Nov 19:18:28 19:28:41 43° 331° (NNW) 19:39:06 29.354- 29.394
SEEDS 24 Nov 19:20:02 19:23:06 20° 63° (ENE) 19:26:11 437.485
CINEMA 3 24 Nov 19:35:09 19:36:50 12° 59° (ENE) 19:38:29 145.822/145.860
BRITE-PL 24 Nov 19:35:26 19:39:55 35° 68° (ENE) 19:44:06 437.365/2234.400
DX 1 24 Nov 19:37:21 19:39:35 14° 58° (ENE) 19:41:50 434.975-435.025
AIST 1 24 Nov 19:37:53 19:42:01 41° 92° (E) 19:46:11
AAUSAT CUBESAT 2 24 Nov 19:40:14 19:43:35 24° 65° (ENE) 19:46:57 437.432
CANX-2 24 Nov 19:44:24 19:48:22 41° 70° (ENE) 19:52:22 2200.000
STRAND 1 24 Nov 19:45:11 19:50:14 61° 289° (WNW) 19:55:15 437.568
PHONESAT 2.4 24 Nov 19:48:54 19:51:38 20° 198° (SSW) 19:54:22 2401.200-2431.200
COMPASS 1 24 Nov 19:53:42 19:57:30 36° 69° (ENE) 20:01:21 437.405
DELFI C3 24 Nov 19:55:32 19:58:03 16° 62° (ENE) 20:00:36 145.870
CUBESAT XI-V 24 Nov 19:58:48 20:03:08 38° 292° (WNW) 20:07:25 437.345
HO-68 24 Nov 20:01:23 20:08:35 82° 71° (ENE) 20:15:49 435.675
ZACube-1 24 Nov 20:05:05 20:06:28 12° 58° (ENE) 20:07:51 437.345
VERMONT LUNAR 24 Nov 20:08:05 20:09:55 13° 204° (SSW) 20:11:45 437.305
BEESAT 3 24 Nov 20:16:43 20:20:10 26° 116° (ESE) 20:23:40 437.485
PRISM 24 Nov 20:16:55 20:18:12 11° 303° (WNW) 20:19:29 437.425
CUTE 1.7 & AOD 2 24 Nov 20:19:01 20:23:14 87° 76° (ENE) 20:27:30 437.475
DOVE 4 24 Nov 20:20:07 20:24:34 50° 72° (ENE) 20:28:47 437.250
AISAT 24 Nov 20:24:11 20:26:32 14° 58° (ENE) 20:28:54 437.250
BEESAT 2 24 Nov 20:30:22 20:34:04 32° 117° (ESE) 20:37:49 435.950
UKube-1 24 Nov 20:37:18 20:41:28 47° 70° (ENE) 20:45:40 .
FUNcube-1 24 Nov 20:38:23 20:41:43 23° 65° (ENE) 20:45:01 145.935
Oscar 11 24 Nov 20:49:52 20:54:07 66° 73° (ENE) 20:58:25 145.826/435.025
GONETS M04 24 Nov 20:50:29 20:58:38 43° 274° (W) 21:06:43
GOMX 1 24 Nov 20:53:46 20:58:32 60° 259° (W) 21:02:59 467.674
PCSat 24 Nov 20:53:48 20:59:12 72° 305° (NW) 21:04:40 145.827
SEEDS 24 Nov 20:54:38 20:58:39 45° 261° (W) 21:02:43 437.485
CUBEBUG 2 24 Nov 20:55:17 20:59:21 45° 71° (ENE) 21:03:21 437.445
AIST 2 24 Nov 20:56:55 21:00:39 31° 117° (ESE) 21:04:28 435.215
UWE-3 24 Nov 20:59:15 21:03:16 43° 70° (ENE) 21:07:13 435.000/436.395/437.385
CINEMA 3 24 Nov 21:09:04 21:13:29 85° 256° (WSW) 21:17:45 145.822/145.860
DX 1 24 Nov 21:10:52 21:15:15 79° 256° (WSW) 21:19:40 434.975-435.025
BRITE-PL 24 Nov 21:14:01 21:18:27 31° 264° (W) 21:22:37 437.365/2234.400
AAUSAT CUBESAT 2 24 Nov 21:15:17 21:19:07 36° 263° (W) 21:22:59 437.432
AIST 1 24 Nov 21:16:29 21:19:53 22° 291° (WNW) 21:23:19
CANX-2 24 Nov 21:21:20 21:24:30 21° 268° (W) 21:27:42 2200.000
ESTCUBE 1 24 Nov 21:26:29 21:29:58 22° 63° (ENE) 21:33:29 437.505/2401.250
STRAND 1 24 Nov 21:27:22 21:28:25 11° 309° (NW) 21:29:28 437.568
DELFI C3 24 Nov 21:28:58 21:32:58 56° 260° (W) 21:37:01 145.870
COMPASS 1 24 Nov 21:30:00 21:33:21 23° 267° (W) 21:36:44 437.405
VELOX 1 24 Nov 21:33:00 21:37:24 58° 72° (ENE) 21:41:48 145.980
HUMSAT D 24 Nov 21:34:22 21:38:23 53° 72° (ENE) 21:42:25 437.325/437.525
50 SAT 24 Nov 21:34:56 21:38:47 45° 71° (ENE) 21:42:39 437.505
RS-15 24 Nov 21:35:11 21:44:42 32° 5° (N) 21:54:27 29.354- 29.394
ZACube-1 24 Nov 21:38:00 21:42:14 87° 256° (WSW) 21:46:26 437.345
HO-68 24 Nov 21:51:47 21:57:05 22° 270° (W) 22:02:26 435.675
QB50P2 24 Nov 21:54:08 21:54:41 10° 87° (E) 21:55:15 145.880/145.840
BEESAT 3 24 Nov 21:54:18 21:58:14 41° 315° (NW) 22:02:14 437.485
AISAT 24 Nov 21:58:06 22:02:36 79° 256° (WSW) 22:07:06 437.250
DOVE 4 24 Nov 21:59:19 22:02:35 19° 268° (W) 22:05:45 437.250
DUCHIFAT 1 24 Nov 22:00:20 22:01:58 12° 88° (E) 22:03:36 145.980
TIGRISAT 24 Nov 22:07:05 22:10:27 21° 93° (E) 22:13:52 435.000
BEESAT 2 24 Nov 22:08:30 22:12:20 35° 317° (NW) 22:16:13 435.950
TISAT 1 24 Nov 22:09:55 22:12:30 16° 60° (ENE) 22:15:05 437.305
FUNcube-1 24 Nov 22:14:00 22:17:55 37° 263° (W) 22:21:49 145.935
SPROUT 24 Nov 22:14:26 22:16:59 16° 60° (ENE) 22:19:33 437.525
UKube-1 24 Nov 22:14:43 22:17:54 20° 267° (W) 22:21:05 .
CUBEBUG 1 24 Nov 22:17:28 22:21:51 61° 72° (ENE) 22:26:15 437.445
NANOSAT C BR1 24 Nov 22:18:20 22:21:21 19° 92° (E) 22:24:21 145.865
UNISAT 6 24 Nov 22:19:26 22:23:17 28° 95° (E) 22:27:10 437.425
M-CUBED/EXP-1 PRIME 24 Nov 22:25:34 22:26:19 10° 47° (NE) 22:27:04 437.505
QB50P1 24 Nov 22:27:42 22:31:07 23° 94° (E) 22:34:30 145.935-145.965
Oscar 11 24 Nov 22:28:33 22:30:46 14° 271° (W) 22:32:58 145.826/435.025
CUBEBUG 2 24 Nov 22:33:15 22:36:18 19° 268° (W) 22:39:19 437.445
AIST 2 24 Nov 22:35:15 22:39:14 37° 316° (NW) 22:43:16 435.215
UWE-3 24 Nov 22:36:55 22:40:02 20° 268° (W) 22:43:07 435.000/436.395/437.385
PCSat 24 Nov 22:39:47 22:43:36 19° 328° (NNW) 22:47:25 145.827
BUGSAT 1 24 Nov 22:47:05 22:50:43 30° 96° (E) 22:54:18 437.445
ANTELSAT 24 Nov 22:47:40 22:52:01 54° 100° (E) 22:56:26 437.575/2403.000
POPSAT HIP 1 24 Nov 22:51:52 22:55:52 40° 98° (E) 22:59:51 437.405
ESTCUBE 1 24 Nov 23:02:10 23:06:34 48° 261° (W) 23:11:00 437.505/2401.250
VELOX 1 24 Nov 23:11:28 23:14:22 17° 269° (W) 23:17:16 145.980
50 SAT 24 Nov 23:11:37 23:14:21 18° 268° (W) 23:17:06 437.505
HUMSAT D 24 Nov 23:12:03 23:14:33 16° 270° (W) 23:17:03 437.325/437.525
POLYITAN 1 24 Nov 23:24:16 23:28:31 90° 278° (W) 23:32:45 437.675
QB50P2 24 Nov 23:26:58 23:31:14 84° 285° (WNW) 23:35:27 145.880/145.840
DUCHIFAT 1 24 Nov 23:34:09 23:38:22 73° 286° (WNW) 23:42:34 145.980
BEESAT 3 24 Nov 23:36:09 23:37:35 11° 337° (NNW) 23:39:01 437.485
TIGRISAT 24 Nov 23:43:15 23:47:25 44° 290° (WNW) 23:51:39 435.000
TISAT 1 24 Nov 23:43:39 23:47:53 63° 258° (WSW) 23:52:09 437.305
CUSAT 1 24 Nov 23:44:25 23:48:35 57° 77° (ENE) 23:54:11 437.405
ITUPSAT 1 24 Nov 23:45:43 23:49:40 26° 63° (ENE) 23:53:38 437.325
SPROUT 24 Nov 23:48:18 23:52:36 66° 258° (WSW) 23:56:55 437.525
RS-15 24 Nov 23:49:25 00:00:14 53° 37° (NE) 00:11:27 29.354- 29.394
BEESAT 2 24 Nov 23:51:00 23:51:52 11° 339° (NNW) 23:52:43 435.950
AUBIESAT-1 24 Nov 23:52:19 23:56:19 54° 65° (ENE) 00:00:43 437.475
NANOSAT C BR1 24 Nov 23:53:27 23:57:29 45° 290° (WNW) 00:01:31 145.865
CUBEBUG 1 24 Nov 23:55:56 23:58:38 16° 270° (W) 00:01:20 437.445
UNISAT 6 24 Nov 23:56:09 00:00:06 33° 292° (WNW) 00:04:07 437.425
M-CUBED/EXP-1 PRIME 24 Nov 23:56:21 00:00:24 65° 67° (ENE) 00:04:51 437.505
SWISSCUBE 24 Nov 23:56:50 00:01:10 35° 66° (ENE) 00:05:31 437.505
DANDE 25 Nov 00:03:07 00:07:10 72° 79° (ENE) 00:12:41 436.750
QB50P1 25 Nov 00:03:14 00:07:08 36° 291° (WNW) 00:11:00 145.935-145.965
MaSat-1 25 Nov 00:09:08 00:11:04 23° 54° (NE) 00:13:01 437.345
ISS 25 Nov 00:11:24 00:14:18 29° 142° (SE) 00:17:12 145.825
AIST 2 25 Nov 00:17:43 00:19:05 11° 338° (NNW) 00:20:28 435.215
BUGSAT 1 25 Nov 00:22:41 00:26:11 27° 294° (WNW) 00:29:38 437.445
ANTELSAT 25 Nov 00:25:23 00:28:29 19° 298° (WNW) 00:31:38 437.575/2403.000
BEESAT 25 Nov 00:27:48 00:32:31 61° 71° (ENE) 00:37:16 436.000
POPSAT HIP 1 25 Nov 00:28:18 00:31:34 22° 296° (WNW) 00:34:49 437.405
STARS 25 Nov 00:44:49 00:47:23 15° 59° (ENE) 00:49:57 437.465
POLYITAN 1 25 Nov 01:02:26 01:03:49 11° 303° (WNW) 01:05:12 437.675
QB50P2 25 Nov 01:05:24 01:06:27 11° 303° (WNW) 01:07:30 145.880/145.840
KKS-1 25 Nov 01:20:07 01:24:21 44° 69° (ENE) 01:28:35 437.445
ITUPSAT 1 25 Nov 01:22:45 01:27:20 44° 261° (W) 01:31:58 437.325
Oscar 19 25 Nov 01:25:41 01:30:36 42° 98° (E) 01:35:29 437.125/150
CUSAT 1 25 Nov 01:28:37 01:31:38 18° 268° (W) 01:35:11 437.405
AUBIESAT-1 25 Nov 01:29:00 01:31:45 17° 265° (W) 01:34:40 437.475
M-CUBED/EXP-1 PRIME 25 Nov 01:33:43 01:36:01 14° 267° (W) 01:38:25 437.505
SWISSCUBE 25 Nov 01:34:46 01:39:02 32° 264° (W) 01:43:21 437.505
MaSat-1 25 Nov 01:44:54 01:45:26 11° 251° (WSW) 01:45:58 437.345
ISS 25 Nov 01:47:31 01:50:47 62° 341° (NNW) 01:54:04 145.825
DANDE 25 Nov 01:48:28 01:50:32 13° 269° (W) 01:52:51 436.750
RS-15 25 Nov 02:02:05 02:13:00 62° 243° (WSW) 02:24:25 29.354- 29.394
BEESAT 25 Nov 02:07:32 02:10:47 18° 269° (W) 02:14:02 436.000
YUBILEINY 25 Nov 02:08:30 02:16:41 45° 87° (E) 02:24:51 435.215
PCSat 25 Nov 02:13:15 02:15:30 12° 21° (NNE) 02:17:45 145.827
ITAMSAT 1 25 Nov 02:15:19 02:20:20 47° 99° (E) 02:25:17 435.822/435.867
STARS 25 Nov 02:18:58 02:23:22 70° 257° (WSW) 02:27:46 437.465
HORYU 2 25 Nov 02:25:44 02:28:16 15° 90° (E) 02:30:49 437.375
Gurwin Techsat 1B 25 Nov 02:38:37 02:43:44 45° 99° (E) 02:48:48 435.225
BEESAT 3 25 Nov 02:56:11 02:58:03 13° 26° (NNE) 02:59:55 437.485
KKS-1 25 Nov 02:57:47 03:01:12 21° 267° (W) 03:04:39 437.445
Oscar 19 25 Nov 03:05:21 03:09:47 30° 296° (WNW) 03:14:13 437.125/150
BEESAT 2 25 Nov 03:10:09 03:12:26 14° 28° (NNE) 03:14:43 435.950
SO-50 25 Nov 03:22:30 03:25:39 19° 111° (ESE) 03:28:52 436.795
ISS 25 Nov 03:24:42 03:27:47 36° 1° (N) 03:30:53 145.825
AIST 2 25 Nov 03:37:59 03:40:23 14° 27° (NNE) 03:42:47 435.215
AO-7 25 Nov 03:41:04 03:48:26 33° 95° (E) 03:55:46 29.400- 29.500
MOZHAYETS 4 25 Nov 03:50:32 03:54:55 46° 70° (ENE) 03:59:22
ITAMSAT 1 25 Nov 03:55:16 03:59:36 27° 298° (WNW) 04:03:54 435.822/435.867
PCSat 25 Nov 03:55:34 04:00:35 36° 45° (NE) 04:05:34 145.827
PRISM 25 Nov 03:59:59 04:02:05 14° 58° (ENE) 04:04:13 437.425
HORYU 2 25 Nov 04:00:57 04:05:25 66° 287° (WNW) 04:09:52 437.375
YUBILEINY 25 Nov 04:05:05 04:13:28 47° 289° (WNW) 04:21:53 435.215
RS-15 25 Nov 04:17:38 04:22:58 15° 265° (W) 04:28:24 29.354- 29.394
Gurwin Techsat 1B 25 Nov 04:18:59 04:23:30 29° 297° (WNW) 04:28:00 435.225
JAS-2 25 Nov 04:27:33 04:33:22 26° 88° (E) 04:38:40 435.910
BEESAT 3 25 Nov 04:33:12 04:37:18 48° 47° (NE) 04:41:20 437.485
BEESAT 2 25 Nov 04:47:26 04:51:37 58° 49° (NE) 04:55:45 435.950
SO-50 25 Nov 05:01:11 05:05:42 66° 311° (NW) 05:10:24 436.795
ISS 25 Nov 05:01:29 05:04:47 65° 21° (NNE) 05:08:04 145.825
AIST 2 25 Nov 05:15:39 05:19:56 58° 49° (NE) 05:24:10 435.215
STRAND 1 25 Nov 05:25:34 05:30:19 39° 66° (ENE) 05:35:05 437.568
CUTE-I 25 Nov 05:26:07 05:29:33 17° 89° (E) 05:32:58 437.470
CUBESAT XI-V 25 Nov 05:28:03 05:32:24 38° 68° (ENE) 05:36:46 437.345
MOZHAYETS 4 25 Nov 05:28:52 05:32:24 22° 268° (W) 05:35:58
PRISM 25 Nov 05:32:52 05:37:05 76° 257° (WSW) 05:41:21 437.425
AO-7 25 Nov 05:33:29 05:41:44 65° 295° (WNW) 05:49:58 29.400- 29.500
PCSat 25 Nov 05:38:58 05:44:07 45° 245° (WSW) 05:49:14 145.827
AIST 1 25 Nov 05:42:51 05:45:36 16° 66° (ENE) 05:48:19
YUBILEINY 25 Nov 06:10:34 06:13:06 11° 316° (NW) 06:15:39 435.215
JAS-2 25 Nov 06:11:50 06:19:07 68° 290° (WNW) 06:25:33 435.910
BEESAT 3 25 Nov 06:11:58 06:15:16 22° 246° (WSW) 06:18:31 437.485
O/OREOS (USA 219) 25 Nov 06:18:37 06:23:00 57° 111° (ESE) 06:27:24 437.305
Cubesat XI-IV 25 Nov 06:23:05 06:28:18 52° 100° (E) 06:33:29 437.490
BEESAT 2 25 Nov 06:26:36 06:29:31 18° 248° (WSW) 06:32:25 435.950
ISS 25 Nov 06:38:24 06:41:14 26° 219° (SW) 06:44:04 145.825
SO-50 25 Nov 06:44:05 06:47:10 17° 333° (NNW) 06:50:19 436.795
AIST 2 25 Nov 06:55:07 06:58:12 19° 248° (WSW) 07:01:14 435.215
CUTE-I 25 Nov 07:04:52 07:10:12 73° 288° (WNW) 07:15:29 437.470
STRAND 1 25 Nov 07:05:01 07:09:34 31° 265° (W) 07:14:09 437.568
CUBESAT XI-V 25 Nov 07:05:52 07:09:55 28° 266° (W) 07:13:59 437.345
AIST 1 25 Nov 07:19:22 07:23:42 58° 265° (W) 07:27:58
AO-7 25 Nov 07:27:37 07:33:02 20° 318° (NW) 07:38:28 29.400- 29.500
HO-68 25 Nov 07:28:50 07:31:15 12° 83° (E) 07:33:39 435.675
GONETS M04 25 Nov 07:58:12 08:06:32 50° 88° (E) 08:14:55
JAS-2 25 Nov 07:58:22 08:02:44 17° 312° (NW) 08:06:51 435.910
O/OREOS (USA 219) 25 Nov 07:59:23 08:02:46 21° 310° (NW) 08:06:10 437.305
CUTE 1.7 & AOD 2 25 Nov 08:03:16 08:05:10 13° 88° (E) 08:07:03 437.475
Cubesat XI-IV 25 Nov 08:03:46 08:08:06 26° 299° (WNW) 08:12:24 437.490
